BRA1723 SBSL-SBFZ

Flight info

Callsign BRA1723
Flight time 0h 59m
Altitude 35000
Route KADOT UZ81 FLZ
Aircraft A21N/M-SDE2E3FGHIRWXY/LB1

Departure

Time 2026-04-25 11:26
Airport Marechal Cunha Machado International Airport (SBSL)

Arrival

Time 2026-04-25 12:26
Airport Pinto Martins International Airport (SBFZ)
Time Latitude Longitude Altitude Speed Heading
2026-04-25 11:20 -2.59685 -44.24331 168 ft 0 kts 39°
2026-04-25 11:26 -2.59681 -44.24327 168 ft 4 kts 39°
2026-04-25 11:26 -2.59543 -44.24215 168 ft 73 kts 39°
2026-04-25 11:26 -2.58804 -44.23601 193 ft 199 kts 40°
2026-04-25 11:26 -2.57626 -44.22660 1056 ft 262 kts 38°
2026-04-25 11:27 -2.56076 -44.21406 2338 ft 300 kts 39°
2026-04-25 11:27 -2.54435 -44.20076 3948 ft 305 kts 40°
2026-04-25 11:27 -2.52833 -44.18675 5443 ft 306 kts 50°
2026-04-25 11:27 -2.52010 -44.17533 6439 ft 304 kts 58°
2026-04-25 11:28 -2.51003 -44.14919 8344 ft 301 kts 82°
2026-04-25 11:28 -2.51098 -44.12849 9824 ft 300 kts 102°
2026-04-25 11:28 -2.51778 -44.10855 10941 ft 311 kts 111°
2026-04-25 11:28 -2.52627 -44.08812 11831 ft 325 kts 112°
2026-04-25 11:29 -2.53505 -44.06700 12945 ft 332 kts 111°
2026-04-25 11:29 -2.54376 -44.04579 14036 ft 336 kts 111°
2026-04-25 11:29 -2.55262 -44.02395 15033 ft 340 kts 111°
2026-04-25 11:29 -2.56151 -44.00183 16024 ft 345 kts 111°
2026-04-25 11:30 -2.57044 -43.97934 17030 ft 351 kts 110°
2026-04-25 11:30 -2.57953 -43.95641 18038 ft 356 kts 110°
2026-04-25 11:30 -2.58877 -43.93319 18910 ft 362 kts 110°
2026-04-25 11:30 -2.59816 -43.90966 19753 ft 367 kts 110°
2026-04-25 11:31 -2.60772 -43.88582 20594 ft 371 kts 110°
2026-04-25 11:31 -2.61740 -43.86172 21422 ft 375 kts 110°
2026-04-25 11:31 -2.62718 -43.83731 22234 ft 380 kts 110°
2026-04-25 11:31 -2.63678 -43.81330 22988 ft 385 kts 110°
2026-04-25 11:32 -2.64678 -43.78829 23736 ft 390 kts 110°
2026-04-25 11:32 -2.65693 -43.76285 24372 ft 395 kts 110°
2026-04-25 11:32 -2.66717 -43.73716 25055 ft 398 kts 110°
2026-04-25 11:32 -2.67752 -43.71128 25736 ft 401 kts 110°
2026-04-25 11:33 -2.68811 -43.68487 26395 ft 405 kts 110°
2026-04-25 11:33 -2.69839 -43.65913 27033 ft 409 kts 110°
2026-04-25 11:33 -2.70899 -43.63259 27668 ft 412 kts 110°
2026-04-25 11:33 -2.72018 -43.60460 28324 ft 416 kts 110°
2026-04-25 11:34 -2.72901 -43.57743 28917 ft 418 kts 102°
2026-04-25 11:34 -2.73527 -43.54888 29546 ft 422 kts 101°
2026-04-25 11:34 -2.74126 -43.52000 30164 ft 428 kts 101°
2026-04-25 11:34 -2.74741 -43.49056 30702 ft 433 kts 101°
2026-04-25 11:35 -2.75368 -43.46059 31253 ft 436 kts 101°
2026-04-25 11:35 -2.76003 -43.43040 31821 ft 436 kts 101°
2026-04-25 11:35 -2.76630 -43.40076 32411 ft 435 kts 101°
2026-04-25 11:35 -2.77259 -43.37107 32844 ft 435 kts 101°
2026-04-25 11:36 -2.77874 -43.34199 32990 ft 434 kts 101°
2026-04-25 11:36 -2.78504 -43.31220 33018 ft 433 kts 101°
2026-04-25 11:36 -2.79730 -43.25403 33011 ft 433 kts 101°
2026-04-25 11:37 -2.80973 -43.19505 33009 ft 433 kts 101°
2026-04-25 11:37 -2.82212 -43.13640 33000 ft 433 kts 101°
2026-04-25 11:38 -2.83463 -43.07702 32996 ft 433 kts 101°
2026-04-25 11:38 -2.84697 -43.01838 32984 ft 433 kts 101°
2026-04-25 11:39 -2.85947 -42.95931 32992 ft 434 kts 101°
2026-04-25 11:39 -2.87205 -42.89988 32998 ft 434 kts 101°
2026-04-25 11:40 -2.88443 -42.84088 32996 ft 434 kts 101°
2026-04-25 11:40 -2.89683 -42.78195 32995 ft 434 kts 101°
2026-04-25 11:41 -2.90929 -42.72275 32998 ft 434 kts 101°
2026-04-25 11:41 -2.92110 -42.66764 33001 ft 435 kts 101°
2026-04-25 11:42 -2.93344 -42.60836 32997 ft 435 kts 101°
2026-04-25 11:42 -2.94582 -42.54907 32997 ft 435 kts 101°
2026-04-25 11:43 -2.95820 -42.49027 32995 ft 435 kts 101°
2026-04-25 11:43 -2.97071 -42.43092 32996 ft 435 kts 101°
2026-04-25 11:44 -2.98311 -42.37168 32992 ft 435 kts 101°
2026-04-25 11:44 -2.99559 -42.31230 32995 ft 435 kts 101°
2026-04-25 11:45 -3.00798 -42.25345 32993 ft 434 kts 101°
2026-04-25 11:45 -3.02045 -42.19429 32996 ft 434 kts 101°
2026-04-25 11:46 -3.03285 -42.13517 32996 ft 434 kts 101°
2026-04-25 11:46 -3.04468 -42.07704 32993 ft 433 kts 101°
2026-04-25 11:47 -3.05665 -42.01791 32986 ft 433 kts 101°
2026-04-25 11:47 -3.06863 -41.95884 32984 ft 433 kts 101°
2026-04-25 11:48 -3.08070 -41.89983 32983 ft 433 kts 101°
2026-04-25 11:48 -3.09266 -41.84118 32977 ft 433 kts 101°
2026-04-25 11:49 -3.10467 -41.78196 32978 ft 433 kts 101°
2026-04-25 11:49 -3.11684 -41.72288 32977 ft 434 kts 101°
2026-04-25 11:50 -3.12718 -41.67332 32978 ft 434 kts 101°
2026-04-25 11:50 -3.13936 -41.61448 32983 ft 434 kts 101°
2026-04-25 11:51 -3.15168 -41.55518 32983 ft 435 kts 102°
2026-04-25 11:51 -3.16372 -41.49691 32994 ft 435 kts 102°
2026-04-25 11:52 -3.17607 -41.43753 32991 ft 435 kts 102°
2026-04-25 11:52 -3.18834 -41.37819 32993 ft 435 kts 102°
2026-04-25 11:53 -3.20066 -41.31883 32994 ft 435 kts 102°
2026-04-25 11:53 -3.21296 -41.25954 32996 ft 435 kts 102°
2026-04-25 11:54 -3.22521 -41.20024 32998 ft 435 kts 102°
2026-04-25 11:55 -3.24364 -41.11130 32998 ft 435 kts 101°
2026-04-25 11:55 -3.25590 -41.05196 32998 ft 434 kts 101°
2026-04-25 11:56 -3.26805 -40.99313 32994 ft 434 kts 101°
2026-04-25 11:56 -3.28029 -40.93387 32991 ft 434 kts 101°
2026-04-25 11:57 -3.29233 -40.87558 32993 ft 433 kts 101°
2026-04-25 11:57 -3.30451 -40.81648 32994 ft 433 kts 101°
2026-04-25 11:58 -3.31669 -40.75743 32994 ft 433 kts 101°
2026-04-25 11:58 -3.32881 -40.69839 32996 ft 432 kts 101°
2026-04-25 11:59 -3.34067 -40.64084 32751 ft 410 kts 101°
2026-04-25 11:59 -3.34637 -40.61332 32512 ft 401 kts 101°
2026-04-25 11:59 -3.35202 -40.58602 32272 ft 400 kts 101°
2026-04-25 12:00 -3.36320 -40.53167 31790 ft 397 kts 101°
2026-04-25 12:00 -3.36874 -40.50462 31551 ft 395 kts 101°
2026-04-25 12:00 -3.37960 -40.45105 31071 ft 391 kts 101°
2026-04-25 12:01 -3.38507 -40.42438 30860 ft 389 kts 101°
2026-04-25 12:01 -3.39048 -40.39785 30617 ft 388 kts 101°
2026-04-25 12:01 -3.39589 -40.37133 30388 ft 386 kts 101°
2026-04-25 12:01 -3.40108 -40.34581 30175 ft 385 kts 101°
2026-04-25 12:02 -3.41178 -40.29335 29668 ft 383 kts 101°
2026-04-25 12:02 -3.41715 -40.26735 29394 ft 381 kts 101°
2026-04-25 12:02 -3.42247 -40.24166 29145 ft 380 kts 101°
2026-04-25 12:03 -3.42781 -40.21574 28887 ft 379 kts 101°
2026-04-25 12:03 -3.43306 -40.18989 28621 ft 378 kts 101°
2026-04-25 12:03 -3.43831 -40.16415 28365 ft 376 kts 101°
2026-04-25 12:03 -3.44326 -40.13838 28013 ft 373 kts 98°
2026-04-25 12:04 -3.44689 -40.11285 27567 ft 368 kts 97°
2026-04-25 12:04 -3.45024 -40.08791 27115 ft 364 kts 97°
2026-04-25 12:04 -3.45362 -40.06289 26640 ft 361 kts 97°
2026-04-25 12:04 -3.45710 -40.03809 26171 ft 358 kts 97°
2026-04-25 12:05 -3.46088 -40.01356 25731 ft 355 kts 100°
2026-04-25 12:05 -3.46588 -39.98945 25293 ft 352 kts 101°
2026-04-25 12:05 -3.47106 -39.96552 24859 ft 350 kts 101°
2026-04-25 12:05 -3.47622 -39.94175 24400 ft 348 kts 101°
2026-04-25 12:06 -3.48128 -39.91816 23953 ft 344 kts 101°
2026-04-25 12:06 -3.48626 -39.89484 23505 ft 340 kts 101°
2026-04-25 12:06 -3.49111 -39.87189 22996 ft 338 kts 101°
2026-04-25 12:06 -3.49606 -39.84828 22509 ft 336 kts 101°
2026-04-25 12:07 -3.50051 -39.82720 22090 ft 334 kts 101°
2026-04-25 12:07 -3.50530 -39.80453 21635 ft 331 kts 101°
2026-04-25 12:07 -3.51004 -39.78199 21192 ft 329 kts 101°
2026-04-25 12:07 -3.51475 -39.75971 20751 ft 326 kts 101°
2026-04-25 12:08 -3.51946 -39.73759 20332 ft 323 kts 101°
2026-04-25 12:08 -3.52414 -39.71556 19931 ft 320 kts 101°
2026-04-25 12:08 -3.52886 -39.69362 19524 ft 317 kts 101°
2026-04-25 12:08 -3.53345 -39.67211 19122 ft 315 kts 101°
2026-04-25 12:09 -3.53801 -39.65066 18732 ft 312 kts 101°
2026-04-25 12:09 -3.54251 -39.62951 18349 ft 310 kts 101°
2026-04-25 12:09 -3.54693 -39.60874 17940 ft 307 kts 101°
2026-04-25 12:09 -3.55133 -39.58801 17531 ft 304 kts 101°
2026-04-25 12:10 -3.55579 -39.56712 17139 ft 301 kts 101°
2026-04-25 12:10 -3.56010 -39.54692 16777 ft 300 kts 102°
2026-04-25 12:10 -3.56450 -39.52659 16428 ft 299 kts 101°
2026-04-25 12:10 -3.56885 -39.50605 16079 ft 298 kts 101°
2026-04-25 12:11 -3.57314 -39.48572 15742 ft 298 kts 101°
2026-04-25 12:11 -3.57739 -39.46570 15411 ft 298 kts 101°
2026-04-25 12:11 -3.58160 -39.44593 15083 ft 298 kts 101°
2026-04-25 12:11 -3.58571 -39.42664 14730 ft 299 kts 101°
2026-04-25 12:12 -3.59013 -39.40591 14353 ft 300 kts 101°
2026-04-25 12:12 -3.59304 -39.39215 14121 ft 300 kts 101°
2026-04-25 12:12 -3.59889 -39.36467 13624 ft 302 kts 101°
2026-04-25 12:12 -3.60326 -39.34416 13236 ft 302 kts 102°
2026-04-25 12:13 -3.60764 -39.32360 12854 ft 301 kts 101°
2026-04-25 12:13 -3.61201 -39.30309 12474 ft 301 kts 101°
2026-04-25 12:13 -3.61636 -39.28261 12094 ft 300 kts 102°
2026-04-25 12:13 -3.62069 -39.26219 11713 ft 299 kts 101°
2026-04-25 12:14 -3.62502 -39.24181 11318 ft 299 kts 101°
2026-04-25 12:14 -3.62933 -39.22151 10958 ft 298 kts 102°
2026-04-25 12:14 -3.63368 -39.20122 10574 ft 297 kts 102°
2026-04-25 12:14 -3.63788 -39.18104 10223 ft 296 kts 101°
2026-04-25 12:15 -3.64171 -39.16085 9874 ft 293 kts 100°
2026-04-25 12:15 -3.64545 -39.14112 9516 ft 285 kts 101°
2026-04-25 12:15 -3.64919 -39.12165 9121 ft 285 kts 101°
2026-04-25 12:15 -3.65292 -39.10237 8745 ft 284 kts 101°
2026-04-25 12:16 -3.65549 -39.08907 8488 ft 284 kts 101°
2026-04-25 12:16 -3.66044 -39.06314 7996 ft 282 kts 101°
2026-04-25 12:16 -3.66401 -39.04430 7655 ft 281 kts 101°
2026-04-25 12:16 -3.66782 -39.02447 7277 ft 280 kts 102°
2026-04-25 12:17 -3.67040 -39.01121 7021 ft 278 kts 102°
2026-04-25 12:17 -3.67398 -38.99283 6662 ft 273 kts 102°
2026-04-25 12:17 -3.67759 -38.97390 6276 ft 272 kts 102°
2026-04-25 12:17 -3.68118 -38.95526 5894 ft 272 kts 102°
2026-04-25 12:18 -3.68475 -38.93662 5515 ft 270 kts 102°
2026-04-25 12:18 -3.68802 -38.91951 5195 ft 268 kts 102°
2026-04-25 12:18 -3.69154 -38.90116 4839 ft 267 kts 102°
2026-04-25 12:18 -3.69505 -38.88296 4461 ft 265 kts 102°
2026-04-25 12:19 -3.70085 -38.85292 3839 ft 263 kts 102°
2026-04-25 12:19 -3.70545 -38.82913 3363 ft 261 kts 102°
2026-04-25 12:19 -3.70890 -38.81143 3056 ft 256 kts 102°
2026-04-25 12:20 -3.71160 -38.79427 2974 ft 239 kts 98°
2026-04-25 12:20 -3.71360 -38.77819 2966 ft 219 kts 99°
2026-04-25 12:20 -3.71604 -38.76366 3040 ft 189 kts 102°
2026-04-25 12:20 -3.71897 -38.75030 3060 ft 203 kts 104°
2026-04-25 12:21 -3.72211 -38.73647 3036 ft 203 kts 105°
2026-04-25 12:21 -3.72567 -38.72274 3027 ft 204 kts 105°
2026-04-25 12:21 -3.72934 -38.70885 3012 ft 203 kts 106°
2026-04-25 12:21 -3.73246 -38.69715 2991 ft 204 kts 106°
2026-04-25 12:22 -3.73670 -38.68124 2776 ft 203 kts 105°
2026-04-25 12:22 -3.74027 -38.66783 2531 ft 189 kts 106°
2026-04-25 12:22 -3.74343 -38.65593 2324 ft 159 kts 106°
2026-04-25 12:22 -3.74606 -38.64612 2104 ft 140 kts 107°
2026-04-25 12:23 -3.74874 -38.63675 1773 ft 139 kts 107°
2026-04-25 12:23 -3.75126 -38.62734 1567 ft 139 kts 106°
2026-04-25 12:23 -3.75380 -38.61781 1455 ft 140 kts 107°
2026-04-25 12:23 -3.75641 -38.60852 1333 ft 141 kts 107°
2026-04-25 12:24 -3.75872 -38.59897 1173 ft 142 kts 104°
2026-04-25 12:24 -3.76098 -38.58922 925 ft 142 kts 105°
2026-04-25 12:24 -3.76332 -38.58013 769 ft 142 kts 107°
2026-04-25 12:24 -3.76622 -38.57012 653 ft 141 kts 109°
2026-04-25 12:25 -3.76889 -38.56051 515 ft 142 kts 107°
2026-04-25 12:25 -3.77132 -38.55088 279 ft 142 kts 107°
2026-04-25 12:25 -3.77402 -38.54123 135 ft 142 kts 108°
2026-04-25 12:25 -3.77634 -38.53216 97 ft 122 kts 116°
2026-04-25 12:26 -3.77810 -38.52668 98 ft 27 kts 105°
2026-04-25 12:26 -3.77855 -38.52508 98 ft 23 kts 105°
2026-04-25 12:26 -3.77862 -38.52484 97 ft 0 kts 105°